When you browse on this site, cookies collect data to enhance your experience and personalize the content and advertising you see.
Visit our Privacy Policy to learn more. By continuing to use the site, you agree to this use of cookies and data.
  • In France
  • List of Countries
  • For 7 days
  • Water Temperature
  • Weather Map
  • Weather Widgets
  • user-avatar
    Login

    Hourly Weather Ljubljana

    Today, 19 August, Monday

    Time Temperature Precipitation Wind Pressure Humidity
    00:00 +14°C° 0 mm 1 mps 668 mmHg 94%
    01:00 +14°C° 0 mm 1 mps 668 mmHg 94%
    02:00 +13°C° 0 mm 1 mps 668 mmHg 94%
    03:00 +13°C° 0 mm 1 mps 668 mmHg 94%
    04:00 +13°C° 0 mm 1 mps 667 mmHg 95%
    05:00 +14°C° 0 mm 1 mps 668 mmHg 91%
    06:00 +15°C° 0 mm 1 mps 668 mmHg 88%
    07:00 +15°C° 0 mm 0 mps 669 mmHg 84%
    08:00 +20°C° 0 mm 1 mps 670 mmHg 75%
    09:00 +22°C° 0 mm 1 mps 671 mmHg 66%
    10:00 +24°C° 0 mm 1 mps 671 mmHg 57%
    11:00 +25°C° 0 mm 1 mps 672 mmHg 54%
    12:00 +26°C° 0 mm 1 mps 672 mmHg 52%
    13:00 +27°C° 0 mm 1 mps 672 mmHg 50%
    14:00 +26°C° 0.1 mm 1 mps 672 mmHg 52%
    15:00 +26°C° 0.1 mm 1 mps 672 mmHg 54%
    16:00 +25°C° 0.1 mm 2 mps 671 mmHg 56%
    17:00 +23°C° 0.2 mm 1 mps 671 mmHg 64%
    18:00 +21°C° 0.2 mm 1 mps 671 mmHg 73%
    19:00 +19°C° 0.2 mm 1 mps 670 mmHg 81%
    20:00 +18°C° 0 mm 1 mps 670 mmHg 82%
    21:00 +16°C° 0 mm 1 mps 671 mmHg 83%
    22:00 +15°C° 0 mm 0 mps 671 mmHg 84%
    23:00 +14°C° 0 mm 0 mps 671 mmHg 85%

    Tomorrow, 20 August, Tuesday

    Time Temperature Precipitation Wind Pressure Humidity
    00:00 +14°C° 0 mm 0 mps 671 mmHg 87%
    01:00 +14°C° 0 mm 0 mps 671 mmHg 89%
    02:00 +13°C° 0 mm 0 mps 670 mmHg 90%
    03:00 +13°C° 0 mm 0 mps 670 mmHg 91%
    04:00 +13°C° 0 mm 0 mps 670 mmHg 92%
    05:00 +14°C° 0 mm 0 mps 671 mmHg 89%
    06:00 +15°C° 0 mm 0 mps 671 mmHg 87%
    07:00 +16°C° 0 mm 0 mps 671 mmHg 84%
    08:00 +18°C° 0 mm 0 mps 672 mmHg 76%
    09:00 +22°C° 0 mm 1 mps 672 mmHg 68%
    10:00 +23°C° 0 mm 1 mps 672 mmHg 60%
    11:00 +25°C° 0 mm 1 mps 673 mmHg 57%
    12:00 +26°C° 0 mm 1 mps 673 mmHg 53%
    13:00 +27°C° 0 mm 1 mps 673 mmHg 50%
    14:00 +27°C° 0 mm 1 mps 672 mmHg 50%
    15:00 +26°C° 0 mm 1 mps 672 mmHg 51%
    16:00 +26°C° 0 mm 1 mps 672 mmHg 51%
    17:00 +24°C° 0 mm 1 mps 671 mmHg 61%
    18:00 +22°C° 0 mm 1 mps 671 mmHg 70%
    19:00 +20°C° 0 mm 1 mps 670 mmHg 80%
    20:00 +19°C° 0 mm 1 mps 670 mmHg 81%
    21:00 +18°C° 0 mm 1 mps 670 mmHg 82%
    22:00 +18°C° 0 mm 1 mps 671 mmHg 84%
    23:00 +16°C° 0 mm 1 mps 671 mmHg 84%

    Day after tomorrow, 21 August, Wednesday

    Time Temperature Precipitation Wind Pressure Humidity
    00:00 +16°C° 0 mm 1 mps 670 mmHg 85%
    01:00 +15°C° 0 mm 1 mps 670 mmHg 86%
    02:00 +15°C° 0.1 mm 1 mps 670 mmHg 86%
    03:00 +15°C° 0.1 mm 1 mps 670 mmHg 87%
    04:00 +14°C° 0.1 mm 1 mps 670 mmHg 88%
    05:00 +15°C° 0.2 mm 1 mps 671 mmHg 89%
    06:00 +16°C° 0.2 mm 1 mps 671 mmHg 89%
    07:00 +16°C° 0.2 mm 1 mps 671 mmHg 90%
    08:00 +19°C° 0.5 mm 1 mps 672 mmHg 86%
    09:00 +20°C° 0.5 mm 1 mps 672 mmHg 83%
    10:00 +21°C° 0.5 mm 1 mps 673 mmHg 80%
    11:00 +21°C° 0.9 mm 1 mps 673 mmHg 79%
    12:00 +22°C° 0.9 mm 1 mps 673 mmHg 79%
    13:00 +22°C° 0.9 mm 1 mps 673 mmHg 78%
    14:00 +22°C° 1.3 mm 1 mps 673 mmHg 78%
    15:00 +22°C° 1.3 mm 1 mps 672 mmHg 78%
    16:00 +22°C° 1.3 mm 1 mps 672 mmHg 78%
    17:00 +21°C° 0.9 mm 1 mps 672 mmHg 83%
    18:00 +19°C° 0.9 mm 1 mps 672 mmHg 87%
    19:00 +18°C° 0.9 mm 1 mps 671 mmHg 92%
    20:00 +16°C° 0.7 mm 1 mps 671 mmHg 93%
    21:00 +15°C° 0.7 mm 1 mps 671 mmHg 94%
    22:00 +14°C° 0.7 mm 0 mps 671 mmHg 95%
    23:00 +13°C° 0.4 mm 0 mps 671 mmHg 95%

    22 August, Thursday

    Time Temperature Precipitation Wind Pressure Humidity
    00:00 +13°C° 0.4 mm 0 mps 671 mmHg 96%
    01:00 +13°C° 0.4 mm 0 mps 671 mmHg 96%
    02:00 +13°C° 0.2 mm 0 mps 671 mmHg 97%
    03:00 +13°C° 0.2 mm 0 mps 671 mmHg 97%
    04:00 +12°C° 0.2 mm 0 mps 670 mmHg 97%
    05:00 +13°C° 0.2 mm 0 mps 671 mmHg 97%
    06:00 +13°C° 0.2 mm 0 mps 671 mmHg 97%
    07:00 +14°C° 0.2 mm 0 mps 671 mmHg 96%
    08:00 +15°C° 0 mm 0 mps 672 mmHg 92%
    09:00 +18°C° 0 mm 1 mps 672 mmHg 87%
    10:00 +19°C° 0 mm 1 mps 672 mmHg 82%
    11:00 +21°C° 0 mm 1 mps 673 mmHg 77%
    12:00 +22°C° 0 mm 1 mps 673 mmHg 72%
    13:00 +23°C° 0 mm 1 mps 673 mmHg 67%
    14:00 +23°C° 0.1 mm 1 mps 673 mmHg 68%
    15:00 +22°C° 0.1 mm 1 mps 672 mmHg 70%
    16:00 +22°C° 0.1 mm 1 mps 672 mmHg 72%
    17:00 +21°C° 0.4 mm 1 mps 672 mmHg 78%
    18:00 +20°C° 0.4 mm 1 mps 672 mmHg 84%
    19:00 +18°C° 0.4 mm 1 mps 672 mmHg 89%
    20:00 +16°C° 0.8 mm 1 mps 672 mmHg 92%
    21:00 +16°C° 0.8 mm 1 mps 672 mmHg 94%
    22:00 +15°C° 0.8 mm 1 mps 672 mmHg 96%
    23:00 +15°C° 0.8 mm 1 mps 672 mmHg 96%

    23 August, Friday

    Time Temperature Precipitation Wind Pressure Humidity
    00:00 +14°C° 0.8 mm 1 mps 672 mmHg 97%
    01:00 +14°C° 0.8 mm 1 mps 672 mmHg 97%
    02:00 +14°C° 0.2 mm 1 mps 672 mmHg 97%
    03:00 +14°C° 0.2 mm 1 mps 671 mmHg 97%
    04:00 +13°C° 0.2 mm 1 mps 671 mmHg 97%
    05:00 +14°C° 0.2 mm 1 mps 672 mmHg 97%
    06:00 +14°C° 0.2 mm 1 mps 672 mmHg 96%
    07:00 +15°C° 0.2 mm 1 mps 672 mmHg 96%
    08:00 +16°C° 0 mm 1 mps 672 mmHg 90%
    09:00 +19°C° 0 mm 1 mps 673 mmHg 84%
    10:00 +20°C° 0 mm 1 mps 673 mmHg 77%
    11:00 +21°C° 0.2 mm 1 mps 673 mmHg 72%
    12:00 +22°C° 0.2 mm 1 mps 673 mmHg 67%
    13:00 +23°C° 0.2 mm 2 mps 673 mmHg 62%
    14:00 +23°C° 0.8 mm 2 mps 673 mmHg 64%
    15:00 +23°C° 0.8 mm 2 mps 673 mmHg 67%
    16:00 +23°C° 0.8 mm 1 mps 672 mmHg 69%
    17:00 +21°C° 0.4 mm 1 mps 672 mmHg 76%
    18:00 +19°C° 0.4 mm 1 mps 671 mmHg 82%
    19:00 +16°C° 0.4 mm 1 mps 670 mmHg 89%
    20:00 +16°C° 0.3 mm 1 mps 670 mmHg 90%
    21:00 +15°C° 0.3 mm 1 mps 671 mmHg 91%
    22:00 +15°C° 0.3 mm 1 mps 671 mmHg 92%
    23:00 +14°C° 0.1 mm 1 mps 670 mmHg 93%

    24 August, Saturday

    Time Temperature Precipitation Wind Pressure Humidity
    00:00 +14°C° 0.1 mm 1 mps 670 mmHg 93%
    01:00 +14°C° 0.1 mm 1 mps 670 mmHg 93%
    02:00 +14°C° 0 mm 1 mps 670 mmHg 93%
    03:00 +14°C° 0 mm 1 mps 669 mmHg 93%
    04:00 +13°C° 0 mm 1 mps 669 mmHg 93%
    05:00 +13°C° 0 mm 0 mps 669 mmHg 92%
    06:00 +14°C° 0 mm 0 mps 670 mmHg 92%
    07:00 +14°C° 0 mm 0 mps 670 mmHg 91%
    08:00 +18°C° 0 mm 1 mps 670 mmHg 84%
    09:00 +20°C° 0 mm 1 mps 671 mmHg 76%
    10:00 +22°C° 0 mm 1 mps 671 mmHg 69%
    11:00 +23°C° 0.2 mm 1 mps 671 mmHg 66%
    12:00 +24°C° 0.2 mm 1 mps 671 mmHg 63%
    13:00 +25°C° 0.2 mm 1 mps 671 mmHg 60%
    14:00 +24°C° 0.4 mm 1 mps 671 mmHg 62%
    15:00 +24°C° 0.4 mm 1 mps 671 mmHg 63%
    16:00 +24°C° 0.4 mm 1 mps 671 mmHg 65%
    17:00 +22°C° 1 mm 1 mps 670 mmHg 74%
    18:00 +20°C° 1 mm 1 mps 669 mmHg 82%
    19:00 +16°C° 1 mm 0 mps 669 mmHg 91%
    20:00 +15°C° 1 mm 0 mps 669 mmHg 91%
    21:00 +15°C° 1 mm 0 mps 669 mmHg 92%
    22:00 +15°C° 1 mm 1 mps 669 mmHg 92%
    23:00 +14°C° 0.2 mm 0 mps 669 mmHg 92%
    Show more